星链-30443 (STARLINK-30443 )

导读

STARLINK-30443是美国太空探索技术公司(SpaceX)于2023年9月20日发射的星链(Starlink)系列卫星,属于星链低轨互联网星座的组成部分。星链项目旨在为全球,尤其偏远、网络覆盖不足地区提供高速低延迟宽带互联网服务,该卫星入轨后,将与其他星链卫星协同,进一步扩展全球卫星互联网的覆盖范围与服务能力。

Basic Information
目录编号:
57894
目录名称:
STARLINK-30443
国际标识:
2023-146D
轨道中心:
EARTH
卫星名称:
星链-30443
卫星全名:
星链-30443 (STARLINK-30443 )
卫星状态:
在轨 (已飞行1002 天)
发射日期:
2023-09-20 UTC
国别 :
美国 (US)
星等 :
--
Orbit Information
数据来源 国际轨道数据 AOE轨道数据
星历时间 2026-06-18T11:58:18+0800
9小时前
查看轨道信息
2026-06-15T18:00:00+0800
3天前
查看轨道信息
半长轴 6861.165km 6861.199km
偏心率 0.000126 0.0001247
轨道倾角 43.002° 43.001°
近地点辐角 267.631° 268.590°
升交点赤经 106.690° 122.220°
平近点角 92.439° 77.193°
近地点 482.163km 482.206km
远地点 483.893km 483.918km
周期 94.266分钟 94.267分钟
每日圈数 15.275873 15.275759
Detailed Information
固有亮度:
5
最大亮度:
0.3
卫星平台:
Starlink v2.0 mini
覆盖范围:
全球
运营商:
太空探索技术公司
运营商所在国:
美国
制造商(研发单位):
太空探索技术公司
制造商所在国:
美国
使用方式:
暂无
Satellite Introduction
星链(Starlink)计划是由太空探索技术公司(SpaceX)提出的一个巨型低轨卫星互联网星座项目,计划在2019年至2024年间在太空搭建由约1.2万颗卫星组成的“星链”网络,其中1584颗将部署在地球上空550千米处的近地轨道,并从2020年开始工作。该卫星仍在工作。
2D Orbit Map
3D Orbit Map
Orbit Altitude Analysis Chart
Orbit Inclination Analysis Chart
Orbit Comprehensive Analysis Chart
View Comprehensive Chart